TimeMDT,TemperatureF,Dew PointF,Humidity,Sea Level PressureIn,VisibilityMPH,Wind Direction,Wind SpeedMPH,Gust SpeedMPH,PrecipitationIn,Events,Conditions,WindDirDegrees,DateUTC
12:53 AM,70.0,60.1,71,29.76,10.0,SE,3.5,-,N/A,,Clear,140,2012-09-01 06:53:00
1:53 AM,70.0,59.0,68,29.74,10.0,SE,3.5,-,N/A,,Clear,140,2012-09-01 07:53:00
2:53 AM,69.1,57.0,65,29.73,10.0,SSE,4.6,-,N/A,,Clear,150,2012-09-01 08:53:00
3:53 AM,66.9,54.0,63,29.71,10.0,SSE,6.9,-,N/A,,Clear,150,2012-09-01 09:53:00
4:53 AM,64.0,55.0,73,29.71,10.0,SSE,3.5,-,N/A,,Clear,160,2012-09-01 10:53:00
5:53 AM,63.0,55.0,75,29.71,10.0,SSE,4.6,-,N/A,,Clear,150,2012-09-01 11:53:00
6:53 AM,62.1,55.0,78,29.73,10.0,SSE,6.9,-,N/A,,Clear,150,2012-09-01 12:53:00
7:53 AM,64.9,57.0,75,29.73,10.0,SE,5.8,-,N/A,,Clear,140,2012-09-01 13:53:00
8:53 AM,71.1,57.9,63,29.72,10.0,SSE,6.9,-,N/A,,Clear,160,2012-09-01 14:53:00
9:53 AM,80.1,53.1,39,29.73,10.0,WSW,10.4,-,N/A,,Clear,250,2012-09-01 15:53:00
10:53 AM,87.1,46.9,25,29.72,10.0,West,13.8,-,N/A,,Clear,260,2012-09-01 16:53:00
11:53 AM,90.0,46.0,22,29.70,10.0,WNW,13.8,23.0,N/A,,Clear,290,2012-09-01 17:53:00
12:53 PM,90.0,46.0,22,29.70,10.0,WSW,13.8,-,N/A,,Clear,240,2012-09-01 18:53:00
1:53 PM,93.0,46.0,20,29.69,10.0,West,16.1,24.2,N/A,,Clear,280,2012-09-01 19:53:00
2:53 PM,91.9,46.0,21,29.69,10.0,WNW,20.7,27.6,N/A,,Partly Cloudy,300,2012-09-01 20:53:00
3:53 PM,91.0,44.1,20,29.70,10.0,West,24.2,32.2,N/A,,Clear,280,2012-09-01 21:53:00
4:53 PM,91.9,46.0,21,29.70,10.0,WNW,15.0,-,N/A,,Clear,300,2012-09-01 22:53:00
5:53 PM,91.0,46.0,21,29.69,10.0,WNW,12.7,17.3,N/A,,Partly Cloudy,290,2012-09-01 23:53:00
6:53 PM,87.1,44.1,22,29.70,10.0,WNW,9.2,-,N/A,,Clear,300,2012-09-02 00:53:00
7:53 PM,80.1,44.1,28,29.72,10.0,NNW,6.9,-,N/A,,Clear,340,2012-09-02 01:53:00
8:53 PM,77.0,45.0,32,29.74,10.0,ENE,4.6,-,N/A,,Clear,70,2012-09-02 02:53:00
9:53 PM,77.0,46.0,33,29.74,10.0,NNW,9.2,-,N/A,,Clear,340,2012-09-02 03:53:00
10:14 PM,73.4,46.4,38,29.83,10.0,NW,17.3,31.1,N/A,,Clear,320,2012-09-02 04:14:00
10:53 PM,71.1,48.0,44,29.78,10.0,NNW,16.1,24.2,N/A,,Clear,330,2012-09-02 04:53:00
11:53 PM,71.1,48.0,44,29.79,10.0,Calm,Calm,-,N/A,,Partly Cloudy,0,2012-09-02 05:53:00